Weather History for Boulmer, United Kingdom

Change the Weather History Date:

Saturday, April 27, 2013

  Actual Average Record
Temperature  
Mean Temperature 42 °F -  
Max Temperature 46 °F - - ()
Min Temperature 37 °F - - ()
Degree Days  
Heating Degree Days 24    
Moisture  
Dew Point 35 °F    
Average Humidity 73    
Maximum Humidity 93    
Minimum Humidity 48    
Precipitation  
Precipitation 0.00 in - - ()
Sea Level Pressure  
Sea Level Pressure 30.03 in    
Wind  
Wind Speed 12 mph ()    
Max Wind Speed 18 mph    
Max Gust Speed 30 mph    
Visibility 8.4 miles    
Events Rain    
T = Trace of Precipitation, MM = Missing Value Source: Averaged Metar Reports

Daily Weather History Graph

Daily Weather History Graph

Search for Another Location

Airport:

Trip Planner

Search our weather history database for the weather conditions in past years. The results will help you decide how hot, cold, wet, or windy it might be!

Date:

Astronomy

Apr. 27, 2013 Rise Set
Actual Time 5:33 AM BST 8:35 PM BST
Civil Twilight 4:51 AM BST 9:18 PM BST
Nautical Twilight 3:54 AM BST 10:15 PM BST
Astronomical Twilight 2:37 AM BST 11:35 PM BST
Moon 11:08 PM BST (4/27) 6:23 AM BST (4/27)
Length of Visible Light 16h 27m
Length of Day
15h 02m
Waning Gibbous, 96% of the Moon is Illuminated
Apr 27
Waning Gibbous
May 2
Last Quarter
May 10
New
May 18
First Quarter
May 25
Full

Hourly Weather History & Observations

Time (BST) Temp. Windchill Dew Point Humidity Pressure Visibility Wind Dir Wind Speed Gust Speed Precip Events Conditions
12:50 AM 40 °F - 36 °F 82% 29.95 in 22 mi NW 11.5 mph - - Rain Light Rain Showers
12:50 AM 41.0 °F 34.3 °F 35.6 °F 81% 29.95 in 6.2 mi NW 11.5 mph - N/A Rain Light Rain Showers
1:50 AM 41.0 °F 33.9 °F 37.4 °F 87% 29.95 in 6.2 mi NNW 12.7 mph - N/A   Partly Cloudy
2:50 AM 39.2 °F 32.0 °F 37.4 °F 93% 29.95 in 6.2 mi NNW 11.5 mph - N/A   Scattered Clouds
3:50 AM 41 °F - 37 °F 80% 29.98 in 19 mi NNW 16.1 mph - -   Scattered Clouds
3:50 AM 41.0 °F 32.8 °F 37.4 °F 87% 29.98 in 6.2 mi NNW 16.1 mph - N/A   Scattered Clouds
4:50 AM 41.0 °F 32.8 °F 37.4 °F 87% 29.98 in 6.2 mi NNW 16.1 mph - N/A   Scattered Clouds
5:50 AM 41.0 °F 32.2 °F 37.4 °F 87% 29.98 in 6.2 mi NNW 18.4 mph - N/A   Scattered Clouds
6:50 AM 41 °F - 38 °F 83% 30.02 in 18 mi NNW 15.0 mph - - Rain Light Rain Showers
6:50 AM 41.0 °F 33.1 °F 37.4 °F 87% 30.01 in 6.2 mi NNW 15.0 mph - N/A Rain Light Rain Showers
7:50 AM 42.8 °F 34.5 °F 37.4 °F 81% 30.01 in 6.2 mi North 18.4 mph 29.9 mph N/A   Partly Cloudy
8:50 AM 44.6 °F 36.9 °F 35.6 °F 71% 30.04 in 6.2 mi North 18.4 mph - N/A   Partly Cloudy
9:50 AM 45 °F - 37 °F 64% 30.08 in 14 mi North 18.4 mph - -   Scattered Clouds
9:50 AM 44.6 °F 36.9 °F 37.4 °F 76% 30.06 in 6.2 mi North 18.4 mph - N/A   Partly Cloudy
10:50 AM 44.6 °F 36.9 °F 35.6 °F 71% 30.09 in 6.2 mi North 18.4 mph - N/A   Partly Cloudy
11:50 AM 46.4 °F 39.8 °F 35.6 °F 66% 30.09 in 6.2 mi North 16.1 mph - N/A   Partly Cloudy
12:50 PM 45 °F - 33 °F 50% 30.12 in 18 mi North 17.3 mph - -   Partly Cloudy
12:50 PM 44.6 °F 37.2 °F 32.0 °F 61% 30.09 in 6.2 mi North 17.3 mph - N/A   Scattered Clouds
1:50 PM 46.4 °F 40.4 °F 33.8 °F 62% 30.09 in 6.2 mi North 13.8 mph - N/A   Unknown
2:50 PM 46.4 °F 40.1 °F 35.6 °F 66% 30.09 in 6.2 mi NNE 15.0 mph - N/A   Unknown
3:50 PM 45 °F - 34 °F 55% 30.10 in 31 mi NNE 11.5 mph - -  
3:50 PM 44.6 °F 38.8 °F 33.8 °F 66% 30.09 in 6.2 mi NNE 11.5 mph - N/A   Unknown
4:50 PM 44.6 °F 40.2 °F 33.8 °F 66% 30.06 in 6.2 mi NE 8.1 mph - N/A   Unknown
5:50 PM 44.6 °F 41.4 °F 32.0 °F 61% 30.06 in 6.2 mi East 5.8 mph - N/A   Unknown
6:50 PM 44 °F - 31 °F 48% 30.06 in 17 mi ESE 6.9 mph - -  
6:50 PM 42.8 °F 38.6 °F 30.2 °F 61% 30.04 in 6.2 mi ESE 6.9 mph - N/A   Unknown
7:50 PM 41.0 °F 35.2 °F 32.0 °F 70% 30.04 in 6.2 mi South 9.2 mph - N/A   Partly Cloudy
8:50 PM 39.2 °F 33.0 °F 33.8 °F 81% 30.04 in 6.2 mi South 9.2 mph - N/A   Unknown
9:50 PM 38 °F - 32 °F 71% 30.05 in 17 mi South 6.9 mph - -   Scattered Clouds
9:50 PM 37.4 °F 32.1 °F 32.0 °F 81% 30.04 in 6.2 mi South 6.9 mph - N/A   Partly Cloudy
10:50 PM 39.2 °F 35.9 °F 32.0 °F 75% 30.01 in 6.2 mi SSW 4.6 mph - N/A   Scattered Clouds
11:50 PM 37.4 °F 31.4 °F 32.0 °F 81% 30.01 in 6.2 mi SW 8.1 mph - N/A   Unknown